星链-30398 (STARLINK-30398 )

导读

STARLINK-30398是SpaceX星链互联网卫星星座的一员,由美国于2023年9月9日发射升空。它沿近地轨道运行,主要为全球范围内用户提供低延迟、高速率的宽带互联网接入服务,补充星链星座的网络覆盖能力,推进星链系统全球组网进程,支撑卫星互联网服务的持续扩容。

基本信息
目录编号:
57815
目录名称:
STARLINK-30398
国际标识:
2023-138H
轨道中心:
EARTH
卫星名称:
星链-30398
卫星全名:
星链-30398 (STARLINK-30398 )
卫星状态:
在轨 (已飞行1013 天)
发射日期:
2023-09-09 UTC
国别 :
美国 (US)
星等 :
--
轨道信息
数据来源 国际轨道数据
星历时间: 2026-06-17T06:20:04+0800
1天前
查看轨道信息
半长轴: 6861.159km
偏心率: 0.0001253
轨道倾角: 43.004°
近地点辐角 275.385°
升交点赤经 33.920°
平近点角 84.685°
近地点: 482.162km
远地点: 483.882km
周期: 94.266分钟
每日圈数: 15.275892
详细信息
固有亮度:
5
最大亮度:
0.3
卫星平台:
Starlink v2.0 mini
覆盖范围:
全球
运营商:
太空探索技术公司
运营商所在国:
美国
制造商(研发单位):
太空探索技术公司
制造商所在国:
美国
使用方式:
暂无
卫星简介
星链(Starlink)计划是由太空探索技术公司(SpaceX)提出的一个巨型低轨卫星互联网星座项目,计划在2019年至2024年间在太空搭建由约1.2万颗卫星组成的“星链”网络,其中1584颗将部署在地球上空550千米处的近地轨道,并从2020年开始工作。该卫星仍在工作。
2D轨道图
3D轨道图
轨道高度分析图
轨道倾角分析图
轨道综合分析图
查看轨道综合分析图